Date,TemperatureHighF,TemperatureAvgF,TemperatureLowF,DewpointHighF,DewpointAvgF,DewpointLowF,HumidityHigh,HumidityAvg,HumidityLow,PressureMaxIn,PressureMinIn,WindSpeedMaxMPH,WindSpeedAvgMPH,GustSpeedMaxMPH,PrecipitationSumIn
2013-1-9,38,32,27,31,28,24,93,83,68,29.04,28.75,15,6,22,0.00
2013-1-10,36,35,34,34,34,31,99,96,82,28.75,28.44,22,9,22,0.04
2013-1-11,38,33,20,38,33,16,99,98,85,28.86,28.20,18,10,18,0.08
2013-1-12,20,14,7,17,9,2,90,79,66,28.97,28.52,17,9,17,0.00
2013-1-13,32,10,4,8,4,1,91,75,52,29.12,28.72,12,5,12,0.05
2013-1-14,30,15,2,18,9,-1,95,78,48,29.24,29.11,15,5,15,0.00
2013-1-15,17,15,14,12,12,0,87,85,82,29.11,29.08,9,6,9,0.05
2013-1-16,50,30,19,36,24,14,95,79,57,29.25,28.72,12,4,15,0.00
2013-1-17,38,32,28,34,30,27,98,94,84,29.20,29.01,16,8,16,0.00
2013-1-18,60,39,4,36,30,2,98,74,37,29.01,28.66,17,7,17,0.05
2013-1-19,51,34,12,38,26,5,92,75,57,29.19,28.62,16,7,16,0.06
2013-1-20,15,11,9,10,5,2,86,78,71,29.27,29.16,10,5,10,0.00
2013-1-22,29,10,8,7,7,5,89,87,70,29.21,28.64,13,8,13,0.05
2013-1-23,27,14,1,16,7,-7,91,76,53,29.37,28.96,21,8,21,0.00
2013-1-24,16,6,-3,8,-2,-11,73,67,60,29.42,28.94,23,13,23,0.00
2013-1-25,40,22,8,27,15,4,86,74,59,29.10,28.89,20,6,20,0.00
2013-1-26,40,22,8,27,15,3,82,72,59,29.10,28.35,23,12,23,0.00
2013-1-27,36,34,32,35,30,26,99,84,69,28.79,28.63,16,11,16,0.27
2013-1-28,38,34,30,37,33,30,99,98,89,28.61,28.41,13,2,15,0.02
2013-1-29,39,27,19,35,23,13,90,85,76,28.69,28.49,13,5,23,0.01
2013-1-30,21,13,5,15,8,0,85,81,75,28.77,28.66,13,8,13,0.00
2013-1-31,34,1,-6,15,-6,-11,80,71,58,29.21,28.76,20,10,20,0.00
2013-2-1,45,11,-6,26,6,-11,88,77,62,29.20,28.69,24,10,24,0.00
2013-2-2,36,23,18,34,20,16,99,86,79,29.00,28.83,12,5,16,0.00
2013-2-3,53,31,14,36,24,10,95,77,47,29.01,28.58,15,5,23,0.00
2013-2-4,30,22,17,28,18,14,93,86,75,28.87,28.61,15,6,20,0.00
2013-2-5,49,33,21,35,28,20,99,83,56,28.89,28.58,8,4,15,0.00
2013-2-6,45,36,27,38,32,26,98,85,69,28.87,28.64,17,6,25,0.00
2013-2-7,34,30,27,33,27,23,98,88,79,29.08,28.76,9,3,16,0.00
2013-2-8,34,27,24,27,24,21,96,87,76,29.12,28.90,17,9,23,0.00
2013-2-9,50,38,26,37,32,25,97,81,57,28.92,28.51,21,15,49,0.00
2013-2-10,43,35,28,42,34,26,99,95,81,28.53,28.05,16,9,27,0.13
2013-2-11,29,26,21,26,22,17,96,86,81,28.93,28.54,9,5,20,0.00
2013-2-12,45,29,16,29,23,15,94,79,50,28.93,28.71,10,5,11,0.01
2013-2-13,52,35,22,37,30,21,99,83,55,28.72,28.49,15,4,15,0.14
2013-2-14,34,34,33,32,32,31,95,93,91,28.68,28.58,12,6,12,0.00
2013-2-15,28,16,8,24,14,6,91,88,80,29.18,29.13,13,3,15,0.00
2013-2-16,35,21,7,29,18,5,94,88,75,29.13,28.79,15,8,15,0.14
2013-2-17,50,34,22,38,29,20,93,81,59,28.82,28.38,30,13,30,0.00
2013-2-18,37,26,9,34,21,3,98,80,60,28.92,28.42,22,11,22,0.00
2013-2-19,20,10,0,5,1,-4,83,68,45,29.21,28.91,21,10,21,0.00
2013-2-20,26,12,-2,8,1,-6,86,63,41,29.24,29.04,18,8,18,0.00
2013-2-21,25,20,18,20,14,8,98,78,54,29.10,28.76,23,14,23,0.00
2013-2-22,29,18,4,21,15,2,97,90,68,28.82,28.74,18,6,18,0.01
2013-2-23,33,12,-3,19,8,-6,94,84,66,28.80,28.63,21,4,21,0.15
2013-2-24,28,19,8,24,16,6,98,90,71,28.92,28.69,6,3,6,0.00
2013-2-25,39,27,18,32,24,18,99,88,64,28.94,28.79,15,4,15,0.05
2013-2-26,37,27,20,30,24,19,99,91,74,28.84,28.69,20,8,20,0.00
2013-2-27,35,26,16,27,22,14,95,86,70,28.95,28.77,15,9,15,0.00
2013-2-28,30,26,24,25,22,20,93,88,79,29.07,28.94,11,7,11,0.00
2013-3-1,37,24,8,22,18,6,94,79,51,29.20,29.05,20,6,20,0.00
2013-3-2,30,17,1,24,13,-1,94,85,74,29.18,28.87,15,6,15,0.01
2013-3-3,38,30,24,30,26,20,93,83,73,28.87,28.54,23,13,23,0.00
2013-3-4,39,33,28,32,27,22,92,80,71,28.83,28.51,15,6,15,0.00
2013-3-5,28,25,21,26,21,17,98,84,76,29.22,28.82,21,11,21,0.00
2013-3-6,33,25,19,24,20,15,88,80,66,29.25,29.06,16,7,16,0.00
2013-3-7,46,32,21,34,26,4,91,80,60,29.08,28.92,28,14,101,0.01
2013-3-8,54,39,15,41,33,14,96,79,57,29.01,28.73,20,9,20,0.02
2013-3-9,43,39,32,43,38,31,99,99,96,28.72,28.44,24,9,24,0.46
2013-3-10,32,27,22,31,26,19,99,94,84,28.82,28.65,13,3,13,0.46
2013-3-11,41,26,15,26,20,12,90,80,52,28.82,28.68,12,6,12,0.07
2013-3-12,32,27,20,27,23,17,99,84,72,29.13,28.80,18,9,18,0.00
2013-3-13,40,25,13,26,20,12,96,82,47,29.23,28.99,20,8,20,0.01
2013-3-14,64,43,28,50,36,22,99,76,55,29.03,28.84,17,6,17,0.00
2013-3-15,52,43,33,44,39,21,99,88,73,29.06,28.58,16,8,16,0.00
2013-3-16,40,29,23,33,24,20,99,81,55,29.02,28.74,16,10,16,0.00
2013-3-17,39,28,20,33,23,15,97,79,69,29.02,28.51,29,15,29,0.01
2013-3-18,35,28,18,35,22,11,99,79,49,28.86,28.50,28,11,28,0.01
2013-3-19,45,25,12,23,14,8,89,66,39,29.19,28.82,17,5,17,0.00
2013-3-20,38,22,10,17,9,6,86,61,31,29.24,28.95,15,7,15,0.00
2013-3-21,35,23,13,21,13,7,80,66,37,28.95,28.76,16,9,16,0.00
2013-3-22,34,28,22,25,20,17,81,72,55,28.89,28.80,12,6,12,0.00
2013-3-23,35,31,28,31,26,24,98,84,68,28.97,28.86,17,6,17,0.00
2013-3-24,30,27,23,26,22,18,99,82,65,28.96,28.86,9,5,16,0.00
2013-3-25,33,26,23,25,22,19,97,83,64,29.16,28.95,7,4,17,0.00
2013-3-26,42,30,13,25,19,10,91,67,43,29.18,29.03,7,3,13,0.04
2013-3-27,53,38,24,31,26,21,88,64,37,29.08,28.99,16,8,22,0.00
2013-3-28,57,42,27,37,32,25,94,68,43,29.06,28.98,14,6,27,0.00
2013-3-29,68,49,27,45,35,26,99,63,31,29.02,28.82,16,7,26,0.00
2013-3-30,67,52,38,50,44,36,99,78,40,28.85,28.74,21,5,32,0.09
2013-3-31,53,38,24,39,31,21,99,80,35,29.01,28.78,14,3,21,0.12
2013-4-1,46,28,12,23,17,10,94,66,27,29.17,29.01,9,2,16,0.13
2013-4-2,54,35,16,28,22,14,92,62,31,29.12,29.05,8,3,15,0.00
2013-4-3,61,44,29,31,27,24,85,57,27,29.12,28.94,22,12,32,0.00
2013-4-4,64,48,32,38,28,13,88,52,15,28.99,28.90,17,7,28,0.11
2013-4-5,65,46,30,40,32,25,83,59,36,29.01,28.47,23,11,37,0.00
2013-4-6,73,57,41,46,39,36,95,55,28,28.63,28.38,16,7,24,0.04
2013-4-7,66,46,30,52,39,30,99,80,42,28.73,28.47,14,6,21,0.04
2013-4-8,75,52,33,53,45,32,99,82,40,28.67,28.45,30,8,44,0.35
2013-4-9,44,35,29,43,35,28,99,98,91,28.93,28.56,33,14,48,1.21
2013-4-10,34,33,33,33,32,31,97,96,93,28.84,28.73,9,1,15,0.08
2013-4-11,41,33,30,37,32,29,99,97,85,28.55,28.45,16,3,10,0.28
2013-4-12,36,32,31,32,31,29,99,94,79,28.72,28.55,12,2,12,0.01
2013-4-13,47,45,44,40,37,36,83,73,66,28.72,28.53,12,8,22,0.00
2013-4-14,57,47,39,51,41,31,97,82,56,28.53,28.12,17,8,28,0.06
2013-4-15,48,38,30,35,29,24,88,72,56,28.93,28.46,7,4,15,0.00
2013-4-16,51,40,30,33,30,28,94,72,45,29.07,28.91,18,6,24,0.00
2013-4-17,39,36,33,38,34,31,99,94,80,29.06,28.73,18,12,29,0.25
2013-4-18,35,33,29,34,32,26,99,97,88,28.75,28.59,10,5,21,0.11
2013-4-19,44,33,23,33,26,20,88,75,51,28.92,28.65,8,5,16,0.00
2013-4-20,43,33,20,31,26,18,95,74,56,29.07,28.93,12,4,17,0.00
2013-4-21,61,48,38,49,38,28,88,71,50,28.99,28.83,16,6,23,0.00
2013-4-22,42,34,27,38,33,27,99,96,85,29.11,28.90,17,7,26,0.21
2013-4-23,40,31,23,29,25,20,98,80,58,29.11,28.98,7,2,13,0.06
2013-4-24,56,37,21,44,30,21,99,78,49,28.98,28.82,14,5,21,0.00
2013-4-25,71,48,24,40,33,24,99,64,24,29.05,28.72,20,8,35,0.00
2013-4-26,81,62,43,42,36,27,82,45,15,28.99,28.77,15,7,22,0.00
2013-4-27,79,58,34,51,42,31,99,60,22,28.99,28.71,14,5,22,0.00
2013-4-28,88,75,56,53,42,32,73,35,14,28.73,28.46,32,17,32,0.00
2013-4-29,82,65,47,50,45,24,82,52,26,28.66,28.27,21,10,21,0.00
2013-4-30,74,64,51,57,40,14,74,46,10,28.85,28.23,24,10,24,0.06
2013-5-1,51,40,32,44,36,31,99,87,73,29.29,28.83,29,8,29,1.24
2013-5-2,58,44,35,36,30,23,81,60,28,29.42,29.24,31,14,31,0.00
2013-5-3,57,42,27,33,28,24,95,63,33,29.25,28.92,29,13,29,0.00
2013-5-4,43,40,37,41,37,31,99,91,69,29.01,28.89,26,12,27,0.05
2013-5-5,59,46,40,49,44,40,99,92,69,29.02,28.95,10,4,10,0.09
2013-5-6,73,53,45,52,47,44,99,82,45,28.99,28.87,10,3,10,0.00
2013-5-7,74,57,38,56,49,38,99,78,39,28.89,28.77,21,6,21,0.00
2013-5-8,67,59,36,62,58,24,99,95,68,29.02,28.73,15,8,15,0.53
2013-5-9,62,58,51,58,56,50,99,94,81,28.88,28.74,28,12,28,0.14
2013-5-10,75,58,44,54,48,40,98,72,37,28.95,28.80,20,6,20,0.00
2013-5-11,63,53,36,50,31,17,84,47,19,29.11,28.84,30,7,30,0.00
2013-5-12,74,52,27,36,22,8,90,41,10,29.10,28.91,16,4,16,0.00
2013-5-13,90,66,44,54,43,29,65,45,21,28.91,28.58,34,12,35,0.00
2013-5-14,103,79,60,59,46,28,81,41,10,28.62,28.42,26,8,26,0.00
2013-5-15,67,64,61,46,43,34,57,46,36,28.77,28.62,24,10,24,0.00
2013-5-16,87,67,57,66,58,40,99,79,19,28.69,28.58,16,6,22,0.31
2013-5-17,90,75,64,68,62,58,92,67,34,28.72,28.58,14,7,19,0.00
2013-5-18,87,80,67,66,64,39,86,59,44,28.95,28.51,25,13,25,0.00
2013-5-19,77,66,62,67,64,61,99,91,67,28.55,28.38,29,9,29,0.19
2013-5-25,57,57,57,57,57,57,99,99,99,28.80,28.80,6,6,8,0.00
2013-5-26,70,62,57,66,60,55,99,94,86,28.85,28.66,37,16,37,0.25
2013-5-27,86,66,59,65,61,44,97,84,63,28.74,28.53,29,12,37,1.23
2013-5-28,82,68,56,65,61,56,99,80,50,28.57,28.46,15,6,15,0.00
2013-5-29,81,71,62,70,65,60,99,85,59,28.54,28.26,34,15,35,0.28
2013-5-30,78,68,62,66,61,51,99,78,49,28.38,28.27,32,17,32,0.04
2013-5-31,76,66,58,55,51,47,87,60,37,28.45,28.36,37,12,37,0.00
2013-6-1,80,55,51,57,53,49,99,94,75,28.87,28.42,15,7,15,0.26
2013-6-2,75,60,48,52,47,42,95,66,33,28.95,28.82,17,5,17,0.00
2013-6-3,78,64,47,53,49,45,95,62,35,28.84,28.62,51,13,51,0.00
2013-6-4,73,64,53,63,57,52,99,80,64,28.85,28.68,21,9,26,0.00
2013-6-5,73,62,51,58,53,49,99,73,48,28.88,28.56,9,4,9,0.00
2013-6-6,75,64,54,59,54,51,98,72,46,28.85,28.78,20,5,20,0.00
2013-6-7,79,65,47,62,51,47,99,65,34,28.88,28.49,12,4,12,0.00
2013-6-8,63,60,55,61,56,50,99,89,65,28.69,28.45,18,11,18,0.90
2013-6-9,72,62,59,63,60,58,99,93,70,28.68,28.43,11,5,11,0.08
2013-6-10,81,67,54,67,61,54,99,82,57,28.72,28.61,15,6,15,0.01
2013-6-11,91,78,65,72,68,63,95,73,48,28.66,28.53,23,10,23,0.02
2013-6-12,85,73,58,75,65,54,96,79,57,28.87,28.41,21,7,21,0.12
2013-6-13,83,69,53,63,56,52,99,67,36,28.94,28.81,13,5,13,0.00
2013-6-14,81,73,62,72,63,55,90,72,58,28.86,28.58,32,14,33,0.08
2013-6-15,88,73,62,70,66,62,99,79,50,28.84,28.63,17,5,17,0.38
2013-6-16,88,72,60,68,60,45,99,69,25,29.05,28.70,21,3,21,0.00
2013-6-17,90,74,56,66,58,48,99,63,29,28.99,28.78,26,3,26,0.00
2013-6-18,90,75,59,62,57,52,96,59,28,28.89,28.78,13,4,13,0.00
2013-6-19,89,77,60,68,63,57,92,63,46,28.82,28.68,26,11,26,0.00
2013-6-20,92,81,70,73,70,65,86,69,52,28.74,28.60,28,15,28,0.00
2013-6-21,95,86,78,75,73,68,85,67,45,28.65,28.54,33,14,34,0.00
2013-6-22,85,73,66,73,68,63,99,84,66,28.82,28.50,30,8,30,0.32
2013-6-23,94,76,64,70,67,59,99,75,40,28.73,28.45,32,6,32,0.05
2013-6-24,85,75,68,75,70,61,99,87,65,28.73,28.56,21,6,21,0.04
2013-6-25,88,79,70,75,70,60,99,77,57,28.57,28.48,21,6,21,0.01
2013-6-26,100,80,69,73,68,58,99,73,26,28.70,28.50,8,3,8,0.00
2013-6-27,92,78,68,73,67,62,97,73,38,28.84,28.70,8,3,8,0.09
2013-6-28,89,77,61,67,61,53,99,63,31,28.83,28.63,13,5,13,0.00
2013-6-29,85,72,59,62,58,54,94,63,36,28.81,28.73,26,7,26,0.00
2013-6-30,81,68,55,59,54,47,96,64,32,28.97,28.80,18,5,18,0.00
2013-7-1,89,72,53,61,54,44,95,60,23,29.04,28.95,18,6,18,0.00
2013-7-2,90,72,54,64,58,52,97,67,31,28.98,28.49,20,4,20,0.09
2013-7-3,89,72,54,64,59,53,99,68,35,28.90,28.52,13,4,13,0.09
2013-7-4,89,75,60,64,60,56,91,62,36,28.77,28.61,30,11,30,0.00
2013-7-5,89,79,68,70,64,54,75,60,47,28.91,28.61,26,14,26,0.00
2013-7-6,92,81,73,72,67,61,78,63,47,28.65,28.58,23,13,23,0.00
2013-7-7,94,81,69,75,70,64,96,71,51,28.79,28.64,16,6,16,0.27
2013-7-8,95,86,75,77,75,72,95,69,52,28.80,28.72,15,6,15,0.01
2013-7-9,96,80,69,77,72,53,100,79,30,28.85,28.67,23,5,23,0.04
2013-7-10,90,75,65,68,63,58,99,71,38,28.94,28.82,15,6,15,0.00
2013-7-11,65,62,61,62,61,60,97,94,91,28.89,28.87,4,1,4,0.00
2013-7-19,98,76,58,66,62,56,99,69,26,28.83,28.72,17,1,24,0.00
2013-7-20,91,75,65,73,67,64,99,79,41,28.77,28.65,9,2,13,0.01
2013-7-21,97,80,66,75,70,66,99,75,41,28.68,28.56,6,2,9,0.01
2013-7-22,97,76,62,77,65,60,97,72,40,28.82,28.59,10,3,15,0.00
2013-7-23,85,69,54,64,59,53,99,73,44,28.92,28.79,10,3,16,0.00
2013-7-24,84,82,82,60,59,59,47,45,44,28.90,28.90,3,2,8,0.00
2013-7-25,68,67,66,68,67,65,99,98,98,28.83,28.82,26,4,26,0.15
2013-7-26,80,68,58,65,58,51,99,74,39,28.98,28.81,20,4,20,0.01
2013-7-27,80,63,45,56,49,44,98,66,30,28.98,28.85,17,4,17,0.00
2013-7-28,85,64,42,55,49,41,99,64,26,28.90,28.84,12,3,12,0.00
2013-7-29,68,60,50,63,56,48,97,86,65,28.90,28.84,18,5,18,0.00
2013-7-30,79,70,62,68,65,61,99,86,65,28.93,28.86,8,2,8,0.00
2013-7-31,92,72,57,73,62,56,99,76,37,28.96,28.87,14,3,14,0.00
2013-8-1,88,69,54,72,63,54,99,85,46,28.94,28.71,18,5,18,0.35
2013-8-2,74,65,62,67,63,61,99,92,70,28.89,28.72,18,6,18,0.69
2013-8-3,81,68,57,64,60,55,99,77,44,29.02,28.88,12,4,12,0.00
2013-8-4,81,67,53,67,62,46,99,86,61,29.03,28.72,44,5,44,0.08
2013-8-5,93,75,14,75,69,-2,99,85,48,28.83,28.64,18,5,18,0.51
2013-8-6,95,76,61,74,68,60,99,80,46,28.74,28.58,18,3,18,0.01
2013-8-7,86,71,58,69,64,58,99,81,49,28.84,28.68,15,3,15,0.00
2013-8-8,81,69,63,71,65,60,98,87,65,28.87,28.79,15,5,15,0.08
2013-8-9,70,62,60,68,62,60,99,99,88,28.93,28.84,6,2,6,0.00
2013-8-10,82,70,60,71,65,60,100,88,58,29.02,28.84,39,5,39,0.38
2013-8-11,90,74,65,75,69,64,99,85,57,28.90,28.82,13,5,13,0.00
2013-8-12,86,71,60,71,64,59,99,82,50,28.93,28.85,12,4,12,0.01
2013-8-13,84,69,54,65,59,54,99,76,44,29.01,28.92,13,4,13,0.00
2013-8-14,71,62,54,69,61,52,99,96,90,29.01,28.67,7,2,7,0.00
2013-8-15,68,63,59,63,61,59,99,94,82,28.95,28.88,11,6,11,0.01
2013-8-16,73,66,61,64,61,59,98,86,70,29.00,28.94,15,5,15,0.00
2013-8-17,80,68,58,65,62,58,99,81,57,28.99,28.91,18,8,18,0.00
2013-8-18,81,68,56,66,61,56,99,80,56,28.94,28.84,23,8,23,0.00
2013-8-19,87,75,63,74,69,62,99,82,63,28.86,28.70,22,10,27,0.00
2013-8-20,90,79,67,79,73,62,99,84,66,28.87,28.67,15,7,15,0.01
2013-8-21,91,78,63,79,73,63,99,84,65,28.85,28.68,17,6,17,0.01
2013-8-22,88,79,68,76,72,67,99,81,60,28.90,28.83,13,5,13,0.00
2013-8-23,88,77,66,76,72,66,99,85,66,28.90,28.76,18,7,18,0.00
2013-8-24,90,79,72,80,74,63,99,87,67,28.97,28.75,25,13,25,0.05
2013-8-25,92,82,74,80,75,71,94,79,63,28.85,28.79,23,14,23,0.00
2013-8-26,92,82,72,79,75,71,97,79,63,28.83,28.69,26,11,26,0.00
2013-8-27,95,84,74,82,74,68,93,74,57,28.72,28.67,15,7,15,0.00
2013-8-28,96,81,69,81,74,67,97,80,55,28.80,28.72,11,4,11,0.00
2013-8-29,94,80,68,81,74,68,99,84,60,28.82,28.69,16,6,16,0.00
2013-8-30,96,81,70,79,74,70,99,81,48,28.75,28.68,13,5,13,0.00
2013-8-31,96,78,66,79,72,66,99,85,53,28.73,28.60,13,4,13,0.00
2013-9-1,87,73,60,75,64,58,99,77,47,28.86,28.63,21,4,21,0.01
2013-9-2,89,66,50,61,57,50,99,77,35,28.98,28.85,9,3,9,0.00
2013-9-3,85,68,52,72,62,51,99,83,58,28.91,28.80,17,5,17,0.00
2013-9-4,88,74,65,73,68,63,99,83,55,28.94,28.84,13,5,13,0.01
2013-9-5,86,74,68,74,69,66,98,85,61,28.98,28.86,20,8,20,0.00
2013-9-6,91,77,65,76,70,64,99,82,59,28.90,28.67,21,9,21,0.00
2013-9-7,92,77,68,79,73,68,99,88,61,28.79,28.66,43,4,43,0.01
2013-9-8,90,78,68,77,73,68,99,85,63,28.77,28.60,15,6,15,0.00
2013-9-9,101,81,71,76,70,66,99,74,39,28.82,28.53,21,6,21,0.04
2013-9-10,88,74,62,73,67,62,99,81,46,28.87,28.67,13,3,13,0.00
2013-9-11,62,61,60,62,60,60,99,99,98,28.89,28.86,4,1,4,0.00
2013-9-12,71,64,54,68,60,49,96,87,77,29.04,28.92,14,3,14,0.01
2013-9-13,81,62,45,60,51,45,99,72,36,29.07,28.88,13,3,13,0.00
2013-9-14,73,62,49,59,54,48,99,78,55,28.88,28.65,24,8,24,0.12
2013-9-15,73,64,55,62,57,52,97,80,56,29.10,28.64,21,8,21,0.00
2013-9-16,74,60,50,59,54,49,99,80,49,29.17,28.99,15,6,15,0.00
2013-9-17,77,62,57,67,61,54,99,95,82,29.00,28.66,20,11,20,0.00
2013-9-18,90,77,67,73,70,56,99,81,39,30.34,28.46,24,14,24,0.00
2013-9-19,82,69,52,70,61,50,98,77,37,28.83,28.45,12,5,12,0.01
2013-9-20,78,57,42,51,45,39,99,70,28,28.88,28.79,9,3,9,0.00
2013-9-21,78,57,34,61,45,34,99,69,36,28.84,28.65,18,6,18,0.01
2013-9-22,85,68,54,57,53,49,96,63,30,28.66,28.55,31,14,31,0.09
2013-9-23,80,67,55,55,52,49,87,62,34,28.62,28.54,29,13,29,0.00
2013-9-24,83,64,56,61,57,52,99,81,44,28.75,28.62,12,3,13,0.01
2013-9-25,80,65,49,61,57,49,99,77,50,28.75,28.54,22,7,22,0.00
2013-9-26,88,72,63,61,60,60,90,70,39,28.59,28.51,26,14,26,0.00
2013-11-1,49,43,33,43,40,33,99,91,72,28.97,28.95,1,0,4,0.00
2013-11-2,65,45,31,41,33,29,99,68,32,28.97,28.79,13,2,13,0.00
2013-11-3,58,48,34,40,36,30,87,65,44,28.84,28.49,39,18,39,0.06
2013-11-4,61,45,27,44,36,23,97,73,38,28.97,28.55,43,5,43,0.19
2013-11-5,37,30,24,37,30,23,99,98,93,29.00,28.81,20,6,20,0.08
2013-11-6,45,34,24,36,31,24,99,90,65,29.05,28.92,8,2,8,0.00
2013-11-7,50,33,21,32,27,21,99,82,44,29.20,29.01,10,4,10,0.00
2013-11-8,57,44,30,43,35,26,86,72,53,29.02,28.48,32,12,32,0.00
2013-11-9,57,43,27,42,35,24,92,74,47,29.18,28.67,45,5,45,0.00
2013-11-10,52,36,23,36,29,22,99,80,41,29.20,28.90,24,6,24,0.00
2013-11-11,40,24,9,37,18,7,97,78,55,29.60,28.91,32,9,32,0.00
2013-11-12,44,19,4,16,10,2,95,71,34,29.65,28.82,17,6,17,0.07
2013-11-13,60,39,22,34,27,15,81,64,35,29.26,28.74,28,14,28,0.00
2013-11-14,63,40,27,46,34,25,95,81,48,28.78,28.67,8,3,8,0.00
2013-11-15,58,40,26,43,34,24,99,84,53,28.68,28.37,25,8,25,0.00
2013-11-16,64,48,37,50,38,26,99,73,31,28.37,28.09,20,10,20,0.00
2013-11-17,57,44,34,45,36,26,98,77,58,28.84,28.20,10,4,10,0.05
2013-11-18,55,37,22,39,30,22,99,78,43,29.04,28.53,18,4,18,0.06
2013-11-19,61,46,31,36,31,27,87,59,37,28.94,28.60,33,19,33,0.00
2013-11-20,55,46,32,39,34,30,92,64,46,28.82,28.57,29,10,29,0.00
2013-11-21,33,25,18,31,20,13,96,81,63,29.42,28.82,22,9,22,0.00
2013-11-22,35,18,1,17,10,-2,90,72,37,29.49,29.35,18,6,18,0.00
2013-11-23,29,15,6,16,5,0,86,68,35,29.70,29.47,20,5,20,0.00
2013-11-24,39,18,7,21,11,3,86,73,48,29.50,28.91,24,11,30,0.00
2013-11-25,48,34,19,32,25,15,91,71,48,29.01,28.84,13,4,23,0.00
2013-11-26,31,22,6,25,13,2,95,70,39,29.25,29.01,7,3,42,0.00
2013-11-27,34,19,2,21,11,-1,92,72,46,29.24,28.77,22,7,33,0.00
2013-11-28,39,24,10,21,16,5,90,71,42,29.28,28.85,6,2,13,0.00
2013-11-29,40,25,12,27,18,9,90,75,54,29.27,28.94,20,8,47,0.00
2013-11-30,35,30,21,34,26,20,100,87,72,28.98,28.90,6,1,8,0.00
2013-12-1,36,31,21,28,25,19,92,78,69,28.98,28.65,8,3,8,0.00
2013-12-2,60,38,25,38,30,22,94,77,43,28.66,28.33,16,5,16,0.00
2013-12-3,33,30,28,31,29,23,99,96,81,28.56,28.37,7,2,7,0.00
2013-12-4,29,17,11,28,15,0,99,91,46,28.84,28.50,45,10,45,0.21
2013-12-5,14,5,-6,6,-1,-10,84,76,63,29.25,28.83,14,7,14,0.00
2013-12-6,8,-3,-10,-3,-9,-14,84,75,60,29.50,29.24,13,3,13,0.00
2013-12-7,11,-2,-15,5,-7,-18,90,78,57,29.55,29.22,13,3,13,0.00
2013-12-8,16,9,-3,12,6,-6,94,89,81,29.22,28.86,14,5,14,0.00
2013-12-9,18,4,-8,11,-3,-13,90,73,49,29.09,28.73,29,9,29,0.00
2013-12-10,25,18,5,20,12,0,93,78,56,29.13,28.73,15,6,16,0.00
2013-12-11,17,5,-13,15,-2,-16,94,73,47,29.44,29.13,16,6,16,0.00
2013-12-12,35,19,6,24,14,3,94,81,53,29.16,28.85,13,7,13,0.00
2013-12-13,27,17,9,21,15,8,97,90,76,29.01,28.79,20,9,20,0.00
2013-12-14,19,12,4,13,9,2,93,87,73,29.06,28.95,14,4,14,0.00
2013-12-15,20,15,9,14,11,5,92,85,75,28.97,28.80,13,6,13,0.00
2013-12-16,39,21,5,30,18,3,97,86,66,28.93,28.76,14,3,14,0.00
2013-12-17,39,28,15,30,22,14,99,79,50,29.08,28.83,13,5,13,0.00
2013-12-18,64,34,24,36,26,15,95,74,34,28.83,28.52,45,6,45,0.00
2013-12-19,29,18,11,27,15,7,99,86,80,28.84,28.61,24,13,24,0.00
2013-12-20,16,12,10,11,8,6,89,84,77,28.84,28.70,13,5,13,0.00
2013-12-21,28,17,7,19,12,4,92,83,59,28.77,28.63,13,4,17,0.00
2013-12-22,17,9,-1,13,4,-5,88,78,59,29.22,28.77,7,4,13,0.00
2013-12-23,8,-4,-13,-5,-13,-20,85,66,37,29.41,29.23,6,2,12,0.00
2013-12-24,23,11,-12,22,6,-18,96,80,67,29.30,28.88,25,10,35,0.00
2013-12-25,38,24,13,32,20,10,99,85,52,29.08,28.93,9,3,17,0.00
2013-12-26,51,30,18,30,23,15,95,76,38,29.03,28.87,5,1,8,0.00
2013-12-27,57,33,14,34,25,10,99,76,37,29.03,28.83,9,3,45,0.00
2013-12-28,65,32,6,34,22,1,90,72,23,29.05,28.51,16,8,23,0.00
2013-12-29,12,2,-5,1,-10,-16,78,57,31,29.26,29.06,9,3,17,0.00
2013-12-30,26,11,1,23,5,-10,91,76,55,29.10,28.82,15,7,21,0.00
2013-12-31,17,9,5,11,4,0,91,81,76,29.08,28.94,16,7,22,0.00
2014-1-1,7,3,-6,1,-2,-10,89,79,68,29.23,29.04,12,5,44,0.00
2014-1-2,16,-2,-12,0,-9,-16,86,74,45,29.29,29.13,10,2,15,0.00